Regional Weather Roundup
Issued by NWS

Home | Current Version | Previous Version | Graphics & Text | Print | Product List | Glossary On
Versions: 1 2 3 4 5 6 7 8 9 10 11 12 13 14 15 16 17 18 19 20 21 22 23 24 25 26 27 28 29 30 31 32 33 34 35 36 37 38 39 40 41 42 43 44 45 46 47 48 49 50
000
ASUS43 KFSD 212110
RWRSD

WEATHER ROUNDUP FOR SOUTH DAKOTA
NATIONAL WEATHER SERVICE SIOUX FALLS SD
300 PM CST SUN DEC 21 2014

NOTE: "FAIR" INDICATES FEW OR NO CLOUDS BELOW 12,000 FEET WITH NO
SIGNIFICANT WEATHER AND/OR OBSTRUCTIONS TO VISIBILITY.


SDZ001>005-009-010-012>017-212200-
NORTHWEST AND NORTH CENTRAL SOUTH DAKOTA

CITY           SKY/WX    TMP DP  RH WIND       PRES   REMARKS
BUFFALO          N/A     40  29  64 SW6       29.32F
FAITH            N/A     39  28  64 W6        29.40R
MOBRIDGE       SUNNY     41  29  62 SE9       29.41F
$$

SDZ012>016-024>037-041>051-057-063-072>074-212200-
SOUTHWEST AND SOUTH CENTRAL SOUTH DAKOTA

CITY           SKY/WX    TMP DP  RH WIND       PRES   REMARKS
RAPID CTY ARPT CLOUDY    48  27  44 N10       29.38S
PIERRE         SUNNY     34  28  79 E10       29.41F WCI  26
CUSTER         CLOUDY    41  23  48 NW10      29.40R
ELLSWORTH AFB  CLOUDY    44  26  48 N15       29.38S
PHILIP         PTSUNNY   48  29  47 CALM      29.37F
PINE RIDGE     CLOUDY    48  31  51 S14       29.38F
SPEARFISH      LGT RAIN  39  34  81 SW3       29.41F
WINNER         FAIR      43  29  57 S18       29.42F
$$

SDZ004>011-016>023-039-040-212200-
NORTHEAST SOUTH DAKOTA

CITY           SKY/WX    TMP DP  RH WIND       PRES   REMARKS
ABERDEEN       CLOUDY    34  30  85 S16       29.52F WCI  24
WATERTOWN      CLOUDY    32  30  92 S16       29.53F FOG     WCI  21
SISSETON         N/A     34  32  92 S14       29.56F WCI  25
$$

SDZ017-020-022-023-036>040-048>070-212200-
SOUTHEAST SOUTH DAKOTA

CITY           SKY/WX    TMP DP  RH WIND       PRES   REMARKS
SIOUX FALLS    CLOUDY    37  35  92 S16       29.60F FOG
HURON          MOSUNNY   35  31  85 SE12      29.50F WCI  27
CHAMBERLAIN    SUNNY     36  30  79 SE8       29.45F
MITCHELL       SUNNY     38  32  79 S20       29.52F
YANKTON        CLOUDY    39  34  81 S18       29.60F
$$

ABBREVIATIONS USED IN REMARKS
   TC - TEMPERATURE IN CELSIUS
  WCI - WIND CHILL INDEX
   HX - HEAT INDEX
  VSB - VISIBILITY




USA.gov is the U.S. government's official web portal to all federal, state and local government web resources and services.